Home > Time Zones > World Clock > Weather > India > Pali > Past weeks

Flag for India Weather past 2 weeks in Pali, Rajasthan, India

Now
90 °F

Haze.


Feels Like: 100 °F
Forecast: 78 / 98 °F
Wind: 6 mph from East

Location: Jaipur / Sanganer

Current Time: Aug 29, 2014 at 11:41:20 AM

Latest Report: Aug 29, 2014 at 11:00 AM


Visibility: 2 mi

Pressure: 29.74 "Hg

Humidity: 63%

Dew point: 75 °F

Location of PaliLocation

Historic Weather in Pali — Graph

°F

Pali temperature yesterday

Maximum temperature yesterday: 97 °F (at 1:00 PM)
Minimum temperature yesterday: 82 °F (at 5:00 AM)
Average temperature yesterday: 88 °F

Past Weeks' High & Low Weather Summary

 TemperatureHumidityPressure
High100 °F (Aug 25, 3:00 PM)94% (Aug 16, 8:00 AM)30.01 "Hg (Aug 16, 8:00 AM)
Low77 °F (Aug 16, 3:00 AM)27% (Aug 25, 4:00 PM)29.56 "Hg (Aug 14, 4:00 PM)
Average87 °F60%29.72 "Hg
* Reported Aug 14 10:00 AM — Aug 29 10:00 AM, Pali, Weather by CustomWeather, © 2014

Note: Actual official high and low records may vary slightly from our data, if they occured in-between our weather recording intervals... More about our weather records

Advertising

Pali weather history for previous 24 hours

 ConditionsComfort  
Time TempWeatherWind HumidityBarometerVisibility
10:00 AM
Aug 29
88 °FHaze.9 mph66%29.77 "Hg2 mi
9:00 AM86 °FFog.9 mph66%29.77 "Hg2 mi
8:00 AM84 °FHaze.8 mph66%29.74 "Hg2 mi
7:00 AM82 °FHaze.2 mph70%29.74 "Hg2 mi
6:00 AM81 °FHaze.3 mph70%29.71 "Hg2 mi
5:00 AM81 °FPassing clouds.2 mph70%29.71 "Hg2 mi
12:00 AM84 °FPassing clouds.1 mph66%29.74 "Hg2 mi
10:00 PM
Aug 28
82 °FPassing clouds.5 mph70%29.74 "Hg2 mi
9:00 PM82 °FPassing clouds.5 mph66%29.71 "Hg2 mi
8:00 PM86 °FPassing clouds.10 mph59%29.71 "Hg2 mi
7:00 PM86 °FScattered clouds.15 mph59%29.68 "Hg2 mi
6:00 PM88 °FScattered clouds.10 mph55%29.68 "Hg2 mi
5:00 PM93 °FScattered clouds.10 mph47%29.65 "Hg2 mi
4:00 PM95 °FScattered clouds.8 mph41%29.65 "Hg2 mi
3:00 PM93 °FScattered clouds.8 mph49%29.68 "Hg2 mi
1:00 PM97 °FExtremely hot.N/A39%29.74 "HgN/A
12:00 PM95 °FScattered clouds.3 mph44%29.74 "Hg2 mi
11:00 AM93 °FHaze.6 mph49%29.77 "Hg2 mi
Weather by CustomWeather, © 2014

See weather overviewHow to use our weather pages